Regional Weather Roundup
Issued by NWS Burlington, VT

Current Version | Previous Version | Text Only | Print | Product List | Glossary Off
Versions: 1 2 3 4 5 6 7 8 9 10 11 12 13 14 15 16 17 18 19 20 21 22 23 24 25 26 27 28 29 30 31 32 33 34 35 36 37 38 39 40 41 42 43 44 45 46 47 48 49 50

000
ASUS41 KBTV 291310
RWRBTV
VERMONT REGIONAL WEATHER ROUNDUP
NATIONAL WEATHER SERVICE BURLINGTON VT
900 AM EDT FRI AUG 29 2014

NOTE: "FAIR" INDICATES FEW OR NO CLOUDS BELOW 12,000 FEET WITH NO
SIGNIFICANT WEATHER AND/OR OBSTRUCTIONS TO VISIBILITY.

* THESE REPORTS ARE NOT UNDER NWS QUALITY CONTROL AND/OR DO NOT
  REPORT WEATHER SUCH AS PRECIPITATION AND FOG.

VTZ001>019-291400-
_____VERMONT_____


CITY           SKY/WX    TMP DP  RH WIND       PRES   REMARKS
BURLINGTON     CLOUDY    61  54  77 N5        30.20R
MONTPELIER     MOSUNNY   58  53  84 N5        30.23R
MORRISVILLE    CLOUDY    59  53  80 NW6       30.21R
ST. JOHNSBURY*   N/A     60  53  77 MISG      30.17R
MIDDLEBURY*    CLOUDY    62  56  81 NW8       30.19S
RUTLAND*       SUNNY     59  54  82 N5        30.19S
SPRINGFIELD    SUNNY     61  52  72 CALM      30.19R
HIGHGATE*      CLOUDY    57  55  91 NW3       30.20R
NEWPORT*       PTSUNNY   60  55  82 N3        30.20R
BENNINGTON     MOSUNNY   61  53  75 CALM      30.20R

_____LAKE CHAMPLAIN_____


CITY           SKY/WX    TMP DP  RH WIND       PRES   REMARKS
COLCHESTER RF*   N/A     61  55  82 N13         N/A
DIAMOND ISL*     N/A     63  54  72 N10         N/A

$$

NYZ007-026>031-035-052-083-291400-
_____NORTHERN NEW YORK_____


CITY           SKY/WX    TMP DP  RH WIND       PRES   REMARKS
PLATTSBURGH    CLOUDY    62  54  74 W3        30.20R
SARANAC LAKE   SUNNY     56  51  84 SE3       30.20R
MASSENA        SUNNY     59  55  87 SE5       30.21R
OGDENSBURG*    SUNNY     61  57  88 S3        30.21R
POTSDAM*       SUNNY     59  55  88 CALM      30.21R
WATERTOWN      SUNNY     62  53  72 CALM      30.21R
FT DRUM        SUNNY     61  51  68 VRB1      30.21R
ALBANY         MOSUNNY   63  54  72 N6        30.20R
GLENS FALLS    SUNNY     63  52  67 N3        30.20R

$$
NHZ002-005-011-291400-
_____NEW HAMPSHIRE_____


CITY           SKY/WX    TMP DP  RH WIND       PRES   REMARKS
LEBANON        SUNNY     60  51  72 CALM      30.18R
KEENE          SUNNY     57  45  62 CALM      30.19R
MT WASHINGTON  PTSUNNY   43  36  75 N18         N/A
PLYMOUTH       FAIR      64  57  79 W8        30.15R
WHITEFIELD     MOSUNNY   61  53  75 CALM      30.18R

$$

_____REGIONAL QUEBEC LOCATIONS_____


CITY           SKY/WX    TMP DP  RH WIND       PRES   REMARKS
MONTREAL       MOSUNNY   63  52  67 NE9       30.21R
QUEBEC CITY    MOSUNNY   55  52  88 CALM      30.22R
SHERBROOKE     SUNNY     57  46  67 NE8       30.21R

_____REGIONAL ONTARIO LOCATIONS_____


CITY           SKY/WX    TMP DP  RH WIND       PRES   REMARKS
OTTAWA         MOSUNNY   61  55  82 NE8       30.21R

______KEY______
VSB  - VISIBILITY IN MILES
WCI  - WIND CHILL INDEX
HX   - HEAT INDEX
$$
NNNN


USA.gov is the U.S. government's official web portal to all federal, state and local government web resources and services.